sat.trackr.live / text

‹ back to catalog

STARLINK-31508

NORAD 59503 · 2024-071V

PAYLOAD ACTIVE UNKNOWN

§ Identity

Operator
Country
US
Launch date
2024-04-13
Launch site
AFETR
Launch vehicle
Mass (kg)
RCS (m²)

Purposes: comms

External: N2YO · Heavens-Above · Gunter

§ Orbital elements

Epoch: 2026-09-21T09:48:27.240768Z

Period
94.27 min
Inclination
43.0034°
Eccentricity
0.0001429
Mean motion
15.27585571 rev/d
Perigee alt
482.1 km
Apogee alt
484.0 km
Semi-major
6,861.2 km
B*
5.4928e-5
RAAN
314.8256°
Arg perigee
264.0222°
Mean anomaly
96.0466°
Rev number
13,813

§ Raw data

STARLINK-315081 59503U 24071V   26264.40864862  .00001250  00000+0  54928-4 0  99932 59503  43.0034 314.8256 0001429 264.0222  96.0466 15.27585571138134

JSON: /api/v1/satellites/59503 · /tle

For live sub-satellite position, see the globe view (requires WebGL).

§ Visibility from observer

Set your observer location to see the next 7 days of passes ≥ 10°. The values pass through the URL so the page stays shareable.

No JS? Fill the form by hand. The geolocation button needs JavaScript.